Weather History for Custer, SD

Change the Weather History Date:

Monday, July 1, 2013

  Actual Average Record
Temperature  
Mean Temperature 59 °F 64 °F  
Max Temperature 71 °F 77 °F 94 °F (1990)
Min Temperature 47 °F 51 °F 32 °F (1951)
Degree Days  
Heating Degree Days 6 3  
Month to date heating degree days 6 3  
Since 1 June heating degree days 199 223  
Since 1 July heating degree days 6 3  
Cooling Degree Days 0 2  
Month to date cooling degree days 0 2  
Year to date cooling degree days 11 28  
Since 1 June cooling degree days 9 27  
Growing Degree Days 8 (Base 50)    
Moisture  
Dew Point 49 °F    
Average Humidity 70    
Maximum Humidity 93    
Minimum Humidity 47    
Precipitation  
Precipitation 0.11 in 0.08 in 0.98 in (1966)
Month to date precipitation 0.11 0.08  
Year to date precipitation 8.29 10.41  
Sea Level Pressure  
Sea Level Pressure 30.20 in    
Wind  
Wind Speed 4 mph (SE)    
Max Wind Speed 13 mph    
Max Gust Speed 20 mph    
Visibility 9 miles    
Events Rain    
T = Trace of Precipitation, MM = Missing Value Source: NWS Daily Summary

Daily Weather History Graph

Daily Weather History Graph

Search for Another Location

Airport:

Trip Planner

Search our weather history database for the weather conditions in past years. The results will help you decide how hot, cold, wet, or windy it might be!

Date:

Astronomy

Jul. 01, 2013 Rise Set
Actual Time 5:16 AM MDT 8:39 PM MDT
Civil Twilight 4:40 AM MDT 9:15 PM MDT
Nautical Twilight 3:53 AM MDT 10:02 PM MDT
Astronomical Twilight 2:55 AM MDT 11:00 PM MDT
Moon 12:55 AM MDT (7/1) 2:51 PM MDT (7/1)
Length of Visible Light 16h 34m
Length of Day
15h 23m
Waning Crescent, 35% of the Moon is Illuminated
Jul 1
Waning Crescent
Jul 8
New
Jul 15
First Quarter
Jul 22
Full
Jul 29
Last Quarter

Hourly Weather History & Observations

Time (MDT) Temp. Dew Point Humidity Pressure Visibility Wind Dir Wind Speed Gust Speed Precip Events Conditions
12:53 AM 59.0 °F 48.0 °F 67% 30.16 in 10.0 mi Calm Calm - N/A   Overcast
1:53 AM 54.0 °F 46.9 °F 77% 30.18 in 10.0 mi East 5.8 mph - N/A   Clear
2:53 AM 53.1 °F 48.0 °F 83% 30.18 in 10.0 mi Calm Calm - N/A   Clear
3:53 AM 50.0 °F 46.9 °F 89% 30.19 in 10.0 mi Calm Calm - N/A   Clear
4:53 AM 48.0 °F 46.0 °F 93% 30.20 in 10.0 mi Calm Calm - N/A   Clear
5:53 AM 46.9 °F 45.0 °F 93% 30.21 in 10.0 mi Calm Calm - N/A   Partly Cloudy
6:53 AM 55.0 °F 48.9 °F 80% 30.20 in 10.0 mi Calm Calm - N/A   Mostly Cloudy
7:53 AM 57.9 °F 50.0 °F 75% 30.20 in 10.0 mi Calm Calm - N/A   Partly Cloudy
8:53 AM 64.9 °F 52.0 °F 63% 30.19 in 10.0 mi Calm Calm - N/A   Scattered Clouds
9:53 AM 66.0 °F 50.0 °F 56% 30.19 in 10.0 mi SE 3.5 mph - N/A   Mostly Cloudy
10:53 AM 64.9 °F 46.9 °F 52% 30.21 in 10.0 mi South 5.8 mph - N/A   Overcast
11:53 AM 64.9 °F 48.0 °F 54% 30.21 in 10.0 mi South 6.9 mph - N/A   Overcast
12:53 PM 69.1 °F 48.9 °F 49% 30.18 in 10.0 mi SE 6.9 mph 18.4 mph N/A   Scattered Clouds
1:53 PM 68.0 °F 48.9 °F 50% 30.20 in 10.0 mi Variable 4.6 mph - N/A   Overcast
2:21 PM 59.0 °F 53.6 °F 82% 30.36 in 1.5 mi WSW 10.4 mph - 0.02 in Rain Heavy Rain
2:32 PM 62.6 °F 55.4 °F 77% 30.36 in 3.0 mi Calm Calm - 0.10 in Rain Light Rain
2:53 PM 64.0 °F 57.0 °F 78% 30.22 in 10.0 mi SSW 4.6 mph - 0.11 in   Mostly Cloudy
3:53 PM 66.9 °F 54.0 °F 63% 30.21 in 10.0 mi SSE 4.6 mph - N/A   Mostly Cloudy
4:53 PM 68.0 °F 52.0 °F 56% 30.21 in 10.0 mi SSE 5.8 mph - N/A   Mostly Cloudy
5:53 PM 68.0 °F 50.0 °F 52% 30.19 in 10.0 mi ESE 6.9 mph - N/A   Scattered Clouds
6:53 PM 66.9 °F 51.1 °F 57% 30.17 in 10.0 mi ESE 11.5 mph - N/A   Mostly Cloudy
7:53 PM 64.9 °F 50.0 °F 58% 30.17 in 10.0 mi ESE 4.6 mph - N/A   Scattered Clouds
8:53 PM 61.0 °F 50.0 °F 67% 30.16 in 10.0 mi ENE 3.5 mph - N/A   Clear
9:53 PM 61.0 °F 46.9 °F 60% 30.18 in 10.0 mi East 5.8 mph - N/A   Partly Cloudy
10:53 PM 55.0 °F 46.0 °F 72% 30.20 in 10.0 mi Calm Calm - N/A   Clear
11:53 PM 54.0 °F 45.0 °F 72% 30.20 in 10.0 mi North 3.5 mph - N/A   Clear